RH
15 16 16 15 14 13 12 13 18 26 33 38 40 41 42 42 42 41 40 38 36 35 33 32 30 29 27 26 25 24 24 24 24 24 23 20 18 17 21 30 41 53
15 17 18 17 15 15 14 14 15 19 25 31 37 40 42 42 43 42 42 42 41 40 39 37 34 32 29 26 24 22 22 21 21 22 22 22 22 20 18 17 20 27
14 17 19 19 17 16 16 16 16 18 19 22 26 31 35 40 42 44 46 47 47 47 46 44 41 39 36 33 30 26 23 21 19 19 20 21 21 22 21 20 18 16
13 17 19 20 19 17 17 17 17 18 20 21 22 23 25 30 34 40 44 48 50 52 52 50 47 47 47 43 40 36 32 28 24 20 18 19 20 22 23 23 22 20
10 15 19 20 20 19 18 18 17 18 19 22 24 25 24 24 25 29 34 39 46 52 56 56 54 54 56 53 46 42 42 40 35 29 23 21 20 21 23 24 25 25
8 13 17 20 21 21 20 19 19 18 19 20 22 24 24 22 22 23 26 29 35 45 55 61 61 61 65 63 54 49 50 51 50 45 37 31 26 24 25 25 26 27
6 9 15 19 21 22 21 20 20 20 20 20 20 21 22 22 21 21 22 25 27 34 45 58 65 67 72 75 67 59 58 58 57 56 52 45 38 33 31 30 29 30
7 7 10 16 21 23 23 21 21 20 21 21 21 20 21 23 24 22 20 22 26 28 34 47 61 69 75 81 80 72 66 62 59 59 58 55 51 46 41 38 35 33
8 6 7 11 18 23 24 23 22 21 20 20 20 20 20 22 26 28 24 21 24 29 31 36 48 61 73 83 87 83 76 70 64 61 59 58 57 54 51 48 45 41
11 7 6 7 12 20 25 25 23 23 21 20 20 20 21 21 25 32 32 26 23 28 33 35 38 48 61 76 88 90 86 80 72 66 63 60 57 56 54 52 51 48
16 9 7 6 7 14 22 26 26 24 23 22 21 21 22 24 27 32 37 37 30 28 30 34 37 41 47 59 76 90 94 91 83 75 70 65 61 58 55 54 53 52
23 13 8 6 5 8 16 25 28 27 25 24 23 22 24 28 30 33 37 42 41 38 34 32 34 38 42 46 56 73 89 96 94 87 79 73 68 63 58 55 53 51
33 20 11 7 6 5 9 19 28 31 28 25 24 24 25 30 36 37 38 41 43 45 46 44 40 38 40 41 43 51 68 84 94 95 91 84 76 71 65 58 52 46
44 29 16 10 7 6 5 10 21 31 33 29 26 25 25 30 39 43 42 42 42 44 47 52 53 49 45 44 42 42 47 60 75 86 93 94 89 82 76 68 58 49
55 40 25 14 9 7 5 5 12 24 35 37 31 26 25 28 37 46 48 46 45 45 47 50 53 54 53 51 48 45 42 44 53 65 75 85 91 91 88 82 72 60
64 51 36 22 13 8 6 5 6 14 28 40 41 34 27 26 31 40 48 52 51 48 49 53 55 54 53 53 54 53 49 44 44 50 57 64 73 80 84 84 80 70
70 61 48 33 20 12 8 6 5 7 15 32 46 46 36 28 27 31 39 49 55 54 49 51 58 61 57 53 52 55 58 55 49 47 49 53 57 62 66 68 65 60
75 68 58 44 30 18 11 7 5 5 7 16 34 49 50 40 29 27 31 38 49 57 54 48 51 61 64 60 55 52 54 59 60 56 51 50 51 54 57 61 60 56
80 73 65 54 40 25 15 10 6 5 5 7 17 35 51 55 45 32 28 31 38 49 54 49 47 53 58 61 61 57 52 52 57 61 61 58 54 51 51 54 59 63
85 78 70 62 50 34 20 13 9 6 5 5 7 16 32 51 60 51 36 28 31 40 47 46 46 49 53 53 56 58 57 53 51 53 58 61 62 60 55 51 52 56
91 82 75 68 59 44 28 17 11 8 6 5 5 7 13 28 50 66 60 41 29 32 41 43 41 44 48 49 50 51 53 54 53 51 50 53 59 64 65 61 55 54
96 86 79 72 65 54 38 22 13 9 7 6 4 5 7 10 26 53 73 70 49 34 34 39 41 42 44 45 46 46 47 49 51 52 51 50 50 55 64 68 64 61
99 90 82 76 70 62 48 30 17 11 8 7 5 4 5 6 11 28 56 80 82 63 43 35 35 38 43 44 43 42 44 45 46 47 50 51 48 46 53 65 68 65
102 94 85 79 74 68 58 41 24 14 9 7 6 5 5 5 7 13 29 59 87 95 81 61 45 37 35 36 37 38 39 40 41 41 43 46 48 44 43 55 67 68
104 97 88 82 77 72 66 52 33 19 12 9 7 6 5 4 4 7 14 31 60 87 99 97 85 70 55 43 36 33 33 35 36 37 38 39 43 42 38 48 66 72
105 102 92 85 81 77 72 62 45 26 15 11 8 6 6 5 4 4 7 15 35 61 85 100 104 100 91 79 64 48 38 34 32 33 35 36 39 39 35 44 64 75
Wind_Speed
44 42 40 38 35 33 30 28 26 24 23 22 22 21 21 22 23 24 25 27 29 31 33 36 38 40 42 44 46 47 49 51 54 57 61 65 70 76 82 87 90 91
44 41 39 37 35 32 30 28 26 24 22 22 22 22 22 22 23 23 24 26 27 29 31 33 35 38 40 43 45 47 49 51 52 54 57 60 63 68 74 79 84 88
44 41 38 35 34 32 30 28 27 25 23 22 22 22 22 23 23 24 25 26 27 28 29 31 33 35 37 39 42 45 48 50 53 54 55 56 59 62 66 71 76 80
44 40 37 35 32 31 29 27 26 25 24 23 22 22 22 22 23 24 25 26 27 28 28 29 30 31 32 34 36 39 42 46 50 53 55 56 57 58 61 64 68 72
45 41 38 35 32 30 28 26 25 24 23 23 22 22 22 22 22 23 24 25 26 27 27 28 28 29 29 30 31 33 36 39 44 48 52 54 55 56 58 59 61 64
46 42 38 35 33 30 28 27 25 24 23 22 22 22 22 22 22 22 22 23 23 24 25 26 27 27 27 28 28 29 30 32 36 40 44 48 51 53 55 56 57 59
47 44 40 36 33 31 29 27 26 25 23 23 22 22 23 23 23 22 22 22 22 22 23 24 25 25 25 26 26 26 26 28 29 32 36 40 44 47 49 51 53 54
48 45 42 38 35 32 30 28 27 25 25 24 24 23 23 24 24 23 23 22 21 21 22 22 23 23 23 24 24 23 23 24 25 26 29 32 36 39 42 45 48 50
49 46 43 40 37 33 31 29 27 26 25 25 25 24 24 24 24 24 23 22 21 21 21 21 21 22 22 21 21 21 20 21 21 22 24 27 30 33 36 39 42 45
49 48 45 42 39 36 33 30 28 27 26 26 26 26 25 24 24 24 23 22 21 21 21 21 20 20 21 20 19 19 19 19 19 20 21 23 25 27 30 33 36 39
49 48 46 43 40 38 35 32 30 28 27 26 26 26 26 25 24 23 23 22 21 21 21 21 20 20 20 19 19 18 18 18 19 19 20 21 22 24 26 28 31 33
48 48 47 44 42 39 37 34 32 30 29 27 26 26 26 25 24 23 22 21 20 20 20 21 21 20 19 19 18 18 18 18 19 20 20 21 22 23 24 26 28 30
48 48 47 45 43 40 38 36 33 31 30 29 27 25 25 25 24 23 22 22 20 19 19 20 20 20 20 20 19 17 17 18 18 19 21 22 23 23 24 25 26 28
47 47 47 46 44 41 39 37 35 33 31 30 29 26 25 25 24 23 22 22 21 19 18 18 19 20 19 19 19 18 17 17 19 19 20 21 23 24 24 25 26 27
47 47 47 46 44 42 40 37 35 34 32 31 30 29 26 25 25 24 23 22 21 20 18 17 18 19 19 19 19 19 18 16 17 19 20 21 22 23 24 25 26 27
46 46 46 46 45 43 40 38 36 34 32 32 32 31 29 27 25 25 24 23 22 21 19 17 17 19 19 19 18 18 19 17 15 16 18 20 21 23 24 25 26 27
45 45 46 46 45 43 41 39 36 34 32 31 32 32 31 29 27 26 25 24 23 23 22 19 17 17 19 19 18 17 18 18 17 15 15 17 20 22 24 25 26 27
44 45 45 45 45 44 42 40 37 35 32 31 31 31 32 32 30 28 26 26 25 25 24 22 19 18 18 19 19 18 17 17 18 17 15 15 16 19 22 25 26 27
43 44 45 45 45 44 43 41 39 36 33 31 30 30 31 33 32 30 28 27 27 27 27 25 21 20 20 19 19 19 18 17 17 18 18 16 16 17 19 22 25 27
43 43 44 44 44 44 43 42 40 38 34 31 30 30 30 31 33 33 31 30 28 28 29 28 24 22 22 21 20 20 20 18 18 18 19 18 17 17 18 19 21 24
42 43 43 44 44 44 43 42 41 39 37 33 31 30 30 30 31 32 33 32 31 30 31 30 28 26 25 25 23 21 20 20 19 19 20 20 19 19 19 19 20 22
42 43 43 44 44 43 43 42 41 40 38 35 33 31 30 29 30 31 32 33 33 33 34 33 31 30 29 28 27 25 23 21 21 22 22 21 21 21 20 20 21 22
42 42 43 43 43 43 42 41 41 40 39 36 34 33 31 29 29 29 30 32 33 33 35 36 35 33 33 32 31 29 27 24 24 24 24 24 24 24 23 22 22 22
41 41 42 43 43 43 42 41 41 40 39 37 36 34 33 30 28 28 29 30 32 33 34 37 37 36 36 36 35 33 31 29 28 27 27 27 27 26 25 24 23 23
41 40 41 42 42 42 42 41 40 40 40 38 37 35 34 32 29 28 28 28 29 31 32 33 35 36 36 37 37 36 34 33 31 31 30 29 29 29 27 25 24 23
40 39 40 41 42 42 42 41 40 40 39 39 37 36 35 33 31 29 28 27 27 29 30 31 32 33 33 34 36 36 35 34 34 33 32 31 31 30 28 26 24 23
Wind_Direction
344 345 346 345 346 347 347 344 338 332 325 319 314 308 303 297 291 286 282 279 276 274 273 272 270 268 265 263 260 258 255 252 250 248 246 244 243 242 242 243 243 243
342 343 343 343 344 345 347 346 344 339 331 323 315 309 304 299 295 291 288 286 283 281 279 277 275 272 269 266 263 260 257 254 252 249 248 246 244 243 242 242 242 242
340 340 340 341 341 341 343 345 345 344 340 333 325 317 309 303 298 294 291 289 288 286 285 284 282 278 274 270 266 263 259 256 253 250 248 246 245 244 243 242 242 241
339 338 337 337 338 338 339 340 341 341 341 339 335 328 321 314 306 299 295 292 291 291 291 291 290 285 279 274 271 267 263 258 254 251 248 246 245 244 243 242 242 242
338 337 335 334 334 334 334 334 336 337 338 338 338 335 330 325 317 310 304 298 295 294 296 297 297 293 286 281 277 274 269 263 257 252 249 246 244 243 242 242 241 241
338 336 334 332 330 329 329 330 330 331 333 334 336 336 334 332 327 321 315 310 305 301 299 300 302 300 294 288 284 281 277 271 263 256 250 246 244 242 241 241 240 240
337 336 334 331 328 325 324 324 325 325 326 327 330 332 334 334 334 331 326 321 317 312 306 303 303 304 300 293 288 286 283 276 269 261 254 249 245 242 240 240 239 238
337 336 334 331 327 324 321 319 319 319 319 320 322 325 328 331 334 335 333 329 325 322 317 310 306 306 305 299 291 288 285 280 273 265 258 252 247 244 240 239 238 237
337 336 334 332 328 324 319 316 314 313 313 314 315 318 321 325 328 331 334 334 332 328 325 320 313 308 307 305 297 290 285 282 275 268 261 254 249 245 241 239 238 237
336 336 334 332 329 325 320 315 312 310 309 309 310 313 316 319 323 326 329 332 333 333 331 328 323 315 309 307 302 295 287 281 276 270 263 256 250 246 243 241 239 238
335 335 334 333 330 326 321 316 311 308 306 305 306 308 311 315 317 320 324 327 329 331 332 333 332 327 318 310 304 299 291 283 275 270 264 259 254 249 244 241 240 239
334 334 334 334 331 328 323 317 312 308 305 303 303 304 306 310 313 315 318 322 325 327 328 329 332 333 329 320 310 301 294 287 278 271 266 262 258 254 250 246 244 242
332 333 333 334 333 330 325 319 313 308 304 301 301 301 302 304 307 309 311 315 319 324 326 326 327 329 331 329 323 311 297 288 282 276 270 266 262 259 256 254 251 249
331 331 332 333 333 331 328 322 316 310 304 300 298 297 298 298 300 302 305 307 311 317 324 327 328 328 327 327 326 323 311 295 285 279 274 269 266 262 259 257 255 253
329 330 331 332 333 332 330 325 319 312 306 300 296 293 293 293 294 295 297 299 302 306 314 322 327 328 328 325 322 321 320 311 295 283 276 272 269 265 262 259 257 255
328 328 329 331 332 333 332 329 323 316 309 301 295 292 290 288 288 289 289 291 294 297 302 309 318 322 324 326 325 320 317 317 311 296 283 276 271 268 265 262 260 258
327 327 328 329 331 332 332 331 327 320 313 304 297 291 288 286 284 284 284 284 286 289 292 296 303 311 315 319 323 323 318 314 313 309 297 285 276 270 267 265 263 261
326 326 326 328 329 331 332 332 330 325 318 310 301 293 288 284 282 280 280 280 280 282 285 287 291 297 303 307 312 317 319 316 313 310 307 298 287 278 271 266 264 262
325 325 325 326 328 329 331 332 332 329 324 317 307 298 290 285 281 279 277 277 276 276 278 281 283 286 291 296 301 305 310 314 314 312 309 305 298 289 281 273 267 263
325 324 324 325 327 328 329 331 332 331 328 323 315 306 297 289 283 279 276 274 274 273 273 275 277 279 282 286 290 295 299 304 308 310 311 309 304 296 290 284 277 270
324 324 323 324 326 327 328 330 331 331 331 328 322 315 307 298 289 281 276 273 272 271 271 272 273 275 277 280 283 285 289 294 299 304 307 309 307 302 294 288 285 281
323 323 323 324 325 326 328 329 330 331 331 331 328 323 317 308 298 288 279 274 271 269 269 270 271 272 274 277 279 281 283 287 292 297 301 304 305 304 299 291 286 285
322 322 322 323 324 325 327 328 329 330 331 332 330 328 325 318 308 296 286 278 273 270 269 269 270 270 271 274 276 278 280 283 286 291 295 299 301 302 300 295 289 287
322 321 322 322 323 324 326 327 328 329 331 332 332 331 331 327 317 305 294 284 277 273 270 269 270 270 270 272 273 275 277 280 282 285 289 293 296 297 298 296 293 291
321 320 321 321 322 323 325 327 327 328 330 331 332 333 334 333 327 315 304 292 282 277 274 272 272 271 271 271 272 274 275 277 279 282 285 288 290 292 294 295 293 293
320 319 319 321 321 322 324 326 327 327 329 330 332 334 335 336 333 324 315 305 292 282 278 276 276 275 274 273 274 274 275 276 277 279 282 284 285 287 289 290 290 292